This is the latest recevied weather packets stored in our database for station/object HA5KDQ-10. If no packets are shown the sender has not sent any weather packets the latest 10 day(s).
| Time | Temp. | Humidity | Pressure | Rain* | Wind** | Luminosity | Snow |
|---|---|---|---|---|---|---|---|
| 1788587872 | 28.89° C | 31% | 960 hPa | - | - | - | - |
| 1788584271 | 30.56° C | 27% | 959.3 hPa | - | - | - | - |
| 1788580670 | 26.67° C | 34% | 958.8 hPa | - | - | - | - |
| 1788577069 | 26.11° C | 36% | 958.6 hPa | - | - | - | - |
| 1788573468 | 25.56° C | 37% | 958.9 hPa | - | - | - | - |
| 1788569867 | 25° C | 36% | 958.5 hPa | - | - | - | - |
| 1788566266 | 25.56° C | 35% | 958.3 hPa | - | - | - | - |
| 1788562665 | 25.56° C | 34% | 958.5 hPa | - | - | - | - |
| 1788559064 | 26.67° C | 33% | 958.7 hPa | - | - | - | - |
| 1788555464 | 27.22° C | 31% | 959.3 hPa | - | - | - | - |
| 1788551863 | 27.22° C | 31% | 959.8 hPa | - | - | - | - |
| 1788548262 | 27.22° C | 31% | 960.4 hPa | - | - | - | - |
| 1788544661 | 27.78° C | 30% | 960.5 hPa | - | - | - | - |
| 1788541060 | 29.44° C | 28% | 960.4 hPa | - | - | - | - |
| 1788537459 | 32.22° C | 25% | 960.9 hPa | - | - | - | - |
| 1788505059 | 26.11° C | 34% | 964.1 hPa | - | - | - | - |
| 1788501459 | 25° C | 36% | 964 hPa | - | - | - | - |
| 1788497858 | 21.11° C | 43% | 963.8 hPa | - | - | - | - |
| 1788494257 | 20.56° C | 43% | 963.8 hPa | - | - | - | - |
| 1788490656 | 21.11° C | 40% | 963.6 hPa | - | - | - | - |
| 1788487055 | 21.11° C | 37% | 963.7 hPa | - | - | - | - |
| 1788483454 | 21.67° C | 36% | 963.8 hPa | - | - | - | - |
| 1788479853 | 22.22° C | 35% | 963.9 hPa | - | - | - | - |
| 1788476252 | 22.78° C | 34% | 964 hPa | - | - | - | - |
| 1788472651 | 23.33° C | 31% | 963.9 hPa | - | - | - | - |
* Rain since midnight (hover to see other rain measurements)
** Current wind speed in m/s (hover to see current wind gust speed)